Flag for United Kingdom Weather past 2 weeks in Liverpool, England, United Kingdom

Now
52 °F

Sprinkles. Scattered clouds.


Feels Like: 44 °F
Forecast: 51 / 56 °F
Wind: 35 mph from Northwest

Location: Liverpool Airport

Current Time: Oct 21, 2014 at 3:05:34 PM

Latest Report: Oct 21, 2014 at 2:20 PM


Visibility: 6 mi

Pressure: 29.71 "Hg

Humidity: 72%

Dew point: 43 °F

Location of LiverpoolLocation

Historic Weather in Liverpool — Graph

°F

Liverpool temperature yesterday

Maximum temperature yesterday: 59 °F (at 1:50 PM)
Minimum temperature yesterday: 54 °F (at 1:50 AM)
Average temperature yesterday: 55 °F

Past Weeks' High & Low Weather Summary

 TemperatureHumidityPressure
High68 °F (Oct 18, 2:50 PM)100% (Oct 7, 12:50 AM)29.92 "Hg (Oct 7, 12:50 AM)
Low37 °F (Oct 12, 8:20 AM)55% (Oct 6, 4:20 PM)29.15 "Hg (Oct 8, 3:50 PM)
Average54 °F85%29.62 "Hg
* Reported Oct 6 1:20 PM — Oct 21 1:50 PM, Liverpool, Weather by CustomWeather, © 2014

Note: Actual official high and low records may vary slightly from our data, if they occured in-between our weather recording intervals... More about our weather records

Advertising

Liverpool weather history for previous 24 hours

 ConditionsComfort  
Time TempWeatherWind HumidityBarometerVisibility
1:50 PM
Oct 21
50 °FLight rain. Scattered clouds.38 mph71%29.71 "Hg6 mi
1:20 PM54 °FScattered showers. Passing clouds.37 mph58%29.68 "HgN/A
12:50 PM54 °FScattered showers. Scattered clouds.37 mph58%29.65 "HgN/A
12:20 PM54 °FScattered showers. Scattered clouds.33 mph63%29.65 "HgN/A
11:50 AM54 °FRain showers. Scattered clouds.29 mph63%29.62 "HgN/A
11:20 AM52 °FRain showers. Scattered clouds.35 mph67%29.59 "HgN/A
10:50 AM52 °FRain showers. Scattered clouds.30 mph72%29.59 "HgN/A
10:20 AM52 °FRain showers. Scattered clouds.38 mph72%29.56 "HgN/A
9:50 AM50 °FRain showers. Scattered clouds.32 mph82%29.53 "HgN/A
9:20 AM52 °FRain showers. Scattered clouds.35 mph77%29.50 "HgN/A
8:50 AM52 °FScattered showers. Scattered clouds.33 mph72%29.50 "HgN/A
8:20 AM52 °FSprinkles. Passing clouds.37 mph72%29.47 "HgN/A
7:50 AM52 °FLight rain. Passing clouds.35 mph77%29.47 "HgN/A
7:20 AM52 °FLight rain. Passing clouds.37 mph77%29.45 "HgN/A
6:50 AM54 °FRain. Passing clouds.30 mph82%29.42 "HgN/A
6:20 AM54 °FPassing clouds.31 mph88%29.39 "HgN/A
5:50 AM55 °FLight rain. Passing clouds.31 mph88%29.39 "Hg6 mi
5:20 AM59 °FPassing clouds.17 mph82%29.36 "HgN/A
4:50 AM57 °FSprinkles. Passing clouds.18 mph88%29.36 "HgN/A
4:20 AM55 °FPassing clouds.24 mph88%29.36 "HgN/A
3:50 AM55 °FPassing clouds.21 mph88%29.39 "HgN/A
3:20 AM55 °FLight rain. Passing clouds.20 mph88%29.45 "HgN/A
2:50 AM55 °FLight rain. Passing clouds.21 mph88%29.47 "HgN/A
2:20 AM57 °FSprinkles. Passing clouds.17 mph77%29.50 "HgN/A
1:50 AM55 °FPassing clouds.12 mph88%29.56 "HgN/A
1:20 AM55 °FPassing clouds.9 mph82%29.56 "HgN/A
12:50 AM55 °FPassing clouds.16 mph82%29.59 "HgN/A
12:20 AM55 °FPassing clouds.9 mph82%29.62 "HgN/A
11:50 PM
Oct 20
55 °FSprinkles. Passing clouds.9 mph88%29.65 "HgN/A
11:20 PM55 °FPassing clouds.17 mph88%29.68 "HgN/A
10:50 PM55 °FPassing clouds.12 mph88%29.68 "HgN/A
10:20 PM55 °FPassing clouds.15 mph88%29.71 "HgN/A
9:50 PM54 °FPassing clouds.16 mph94%29.74 "HgN/A
9:20 PM55 °FPassing clouds.17 mph88%29.74 "HgN/A
8:50 PM55 °FPassing clouds.12 mph88%29.74 "HgN/A
8:20 PM54 °FPassing clouds.5 mph88%29.77 "HgN/A
7:50 PM55 °FPassing clouds.8 mph82%29.80 "HgN/A
7:20 PM55 °FPassing clouds.9 mph82%29.80 "HgN/A
6:50 PM55 °FScattered clouds.9 mph82%29.80 "HgN/A
6:20 PM55 °FScattered clouds.9 mph82%29.83 "HgN/A
5:50 PM57 °FScattered clouds.9 mph77%29.83 "HgN/A
5:20 PM57 °FScattered clouds.14 mph77%29.83 "HgN/A
4:50 PM57 °FScattered clouds.14 mph77%29.83 "HgN/A
4:20 PM57 °FScattered clouds.14 mph72%29.83 "HgN/A
3:50 PM57 °FScattered clouds.15 mph77%29.86 "HgN/A
3:20 PM59 °FScattered clouds.14 mph72%29.86 "HgN/A
Weather by CustomWeather, © 2014

See weather overviewHow to use our weather pages